Weather History for Valley City, ND

Change the Weather History Date:

Thursday, February 7, 2013

  Actual Average (KJMS) Record (KJMS)
Temperature  
Mean Temperature 12 °F 12 °F  
Max Temperature 15 °F 23 °F 57 °F (1991)
Min Temperature 8 °F 3 °F -38 °F (1933)
Degree Days  
Heating Degree Days 54 52  
Month to date heating degree days 372  
Since 1 July heating degree days 5734  
Cooling Degree Days 0 0  
Month to date cooling degree days 0  
Year to date cooling degree days 0  
Moisture  
Dew Point 12 °F    
Average Humidity 97    
Maximum Humidity 100    
Minimum Humidity 92    
Precipitation  
Precipitation 0.00 in 0.01 in 0.42 in (1952)
Month to date precipitation 0.07  
Year to date precipitation 0.52  
Sea Level Pressure  
Sea Level Pressure 30.19 in    
Wind  
Wind Speed 9 mph (ENE)    
Max Wind Speed 13 mph    
Max Gust Speed -    
Visibility 7 miles    
Events Fog , Snow    
T = Trace of Precipitation, MM = Missing Value Source: NWS Daily Summary

Daily Weather History Graph

Daily Weather History Graph

Search for Another Location

Airport:

Trip Planner

Search our weather history database for the weather conditions in past years. The results will help you decide how hot, cold, wet, or windy it might be!

Date:

Astronomy

Feb. 07, 2013 Rise Set
Actual Time 7:48 AM CST 5:44 PM CST
Civil Twilight 7:16 AM CST 6:16 PM CST
Nautical Twilight 6:40 AM CST 6:52 PM CST
Astronomical Twilight 6:05 AM CST 7:28 PM CST
Moon 5:35 AM CST (2/7) 3:05 PM CST (2/7)
Length of Visible Light 11h 00m
Length of Day
9h 56m
Waning Crescent, 9% of the Moon is Illuminated
Feb 7
Waning Crescent
Feb 10
New
Feb 17
First Quarter
Feb 25
Full
Mar 4
Last Quarter

Hourly Weather History & Observations

Time (CST) Temp. Windchill Dew Point Humidity Pressure Visibility Wind Dir Wind Speed Gust Speed Precip Events Conditions
12:15 AM 15.8 °F 2.1 °F 15.8 °F 100% 30.08 in 10.0 mi NNE 12.7 mph - N/A   Overcast
12:35 AM 15.8 °F 3.4 °F 15.8 °F 100% 30.09 in 10.0 mi NNE 10.4 mph - N/A   Overcast
12:55 AM 15.8 °F 2.7 °F 14.0 °F 93% 30.10 in 10.0 mi NNE 11.5 mph - N/A   Overcast
1:15 AM 14.0 °F -0.2 °F 14.0 °F 100% 30.10 in 10.0 mi NNE 12.7 mph - N/A   Overcast
1:35 AM 14.0 °F 0.5 °F 14.0 °F 100% 30.09 in 10.0 mi NNE 11.5 mph - N/A   Overcast
1:55 AM 14.0 °F 1.2 °F 14.0 °F 100% 30.08 in 10.0 mi NE 10.4 mph - N/A   Overcast
2:15 AM 14.0 °F 0.5 °F 12.2 °F 93% 30.09 in 10.0 mi NNE 11.5 mph - N/A   Overcast
2:35 AM 14.0 °F 2.0 °F 12.2 °F 93% 30.10 in 10.0 mi NNE 9.2 mph - N/A   Overcast
2:55 AM 14.0 °F 0.5 °F 12.2 °F 93% 30.11 in 10.0 mi NE 11.5 mph - N/A   Overcast
3:15 AM 12.2 °F -1.0 °F 10.4 °F 92% 30.10 in 10.0 mi NE 10.4 mph - N/A   Overcast
3:35 AM 12.2 °F -0.2 °F 10.4 °F 92% 30.12 in 10.0 mi NNE 9.2 mph - N/A   Overcast
3:55 AM 12.2 °F -1.8 °F 10.4 °F 92% 30.13 in 10.0 mi NNE 11.5 mph - N/A   Overcast
4:15 AM 12.2 °F -1.8 °F 10.4 °F 92% 30.13 in 10.0 mi North 11.5 mph - N/A   Overcast
4:35 AM 10.4 °F -4.8 °F 10.4 °F 100% 30.13 in 10.0 mi NNE 12.7 mph - N/A   Overcast
4:55 AM 10.4 °F -1.5 °F 8.6 °F 92% 30.14 in 10.0 mi NNE 8.1 mph - N/A   Overcast
5:15 AM 8.6 °F -2.6 °F 8.6 °F 100% 30.15 in 10.0 mi NE 6.9 mph - N/A   Overcast
5:35 AM 8.6 °F -1.3 °F 6.8 °F 92% 30.14 in 10.0 mi NNE 5.8 mph - N/A   Overcast
5:55 AM 8.6 °F -3.7 °F 6.8 °F 92% 30.14 in 10.0 mi NNE 8.1 mph - N/A   Overcast
6:15 AM 8.6 °F -5.5 °F 6.8 °F 92% 30.15 in 10.0 mi North 10.4 mph - N/A   Overcast
6:35 AM 8.6 °F -5.5 °F 6.8 °F 92% 30.16 in 10.0 mi North 10.4 mph - N/A   Overcast
6:55 AM 8.6 °F -5.5 °F 6.8 °F 92% 30.16 in 10.0 mi North 10.4 mph - N/A   Overcast
7:15 AM 8.6 °F -5.5 °F 6.8 °F 92% 30.17 in 10.0 mi North 10.4 mph - N/A   Overcast
7:35 AM 8.6 °F -4.7 °F 6.8 °F 92% 30.18 in 10.0 mi North 9.2 mph - N/A   Overcast
7:55 AM 8.6 °F -5.5 °F 6.8 °F 92% 30.18 in 10.0 mi North 10.4 mph - N/A   Overcast
8:15 AM 8.6 °F -5.5 °F 6.8 °F 92% 30.19 in 10.0 mi North 10.4 mph - N/A   Overcast
8:35 AM 8.6 °F -5.5 °F 6.8 °F 92% 30.20 in 10.0 mi NNE 10.4 mph - N/A   Overcast
8:55 AM 8.6 °F -4.7 °F 8.6 °F 100% 30.20 in 10.0 mi NNE 9.2 mph - N/A   Overcast
9:15 AM 10.4 °F -1.5 °F 8.6 °F 92% 30.20 in 8.0 mi NE 8.1 mph - N/A   Overcast
9:35 AM 10.4 °F -2.4 °F 8.6 °F 92% 30.20 in 7.0 mi NNE 9.2 mph - N/A Snow Light Snow
9:55 AM 10.4 °F -3.3 °F 10.4 °F 100% 30.20 in 6.0 mi NNE 10.4 mph - N/A   Overcast
10:15 AM 10.4 °F -3.3 °F 10.4 °F 100% 30.21 in 7.0 mi NNE 10.4 mph - N/A   Overcast
10:35 AM 10.4 °F -3.3 °F 10.4 °F 100% 30.21 in 5.0 mi NE 10.4 mph - N/A   Overcast
10:55 AM 10.4 °F -1.5 °F 10.4 °F 100% 30.21 in 7.0 mi NE 8.1 mph - N/A   Overcast
11:15 AM 12.2 °F 0.7 °F 10.4 °F 92% 30.23 in 6.0 mi NE 8.1 mph - N/A   Overcast
11:35 AM 12.2 °F 0.7 °F 10.4 °F 92% 30.24 in 7.0 mi NE 8.1 mph - N/A Snow Light Snow
11:55 AM 12.2 °F 1.7 °F 10.4 °F 92% 30.23 in 5.0 mi ENE 6.9 mph - N/A   Overcast
12:15 PM 12.2 °F 0.7 °F 10.4 °F 92% 30.23 in 6.0 mi East 8.1 mph - N/A   Overcast
12:35 PM 12.2 °F 4.3 °F 10.4 °F 92% 30.23 in 3.0 mi East 4.6 mph - N/A   Overcast
12:55 PM 12.2 °F 4.3 °F 12.2 °F 100% 30.22 in 7.0 mi ENE 4.6 mph - N/A   Overcast
1:15 PM 14.0 °F 5.1 °F 12.2 °F 93% 30.22 in 8.0 mi NE 5.8 mph - N/A   Overcast
1:35 PM 14.0 °F 3.9 °F 12.2 °F 93% 30.22 in 10.0 mi ENE 6.9 mph - N/A   Overcast
1:55 PM 14.0 °F 8.2 °F 12.2 °F 93% 30.22 in 10.0 mi East 3.5 mph - N/A   Overcast
2:15 PM 14.0 °F 8.2 °F 14.0 °F 100% 30.21 in 10.0 mi SE 3.5 mph - N/A   Overcast
2:35 PM 15.8 °F 5.1 °F 14.0 °F 93% 30.21 in 10.0 mi ESE 8.1 mph - N/A   Overcast
2:55 PM 15.8 °F 4.2 °F 15.8 °F 100% 30.21 in 10.0 mi SE 9.2 mph - N/A   Overcast
3:15 PM 15.8 °F 7.2 °F 15.8 °F 100% 30.21 in 10.0 mi SE 5.8 mph - N/A   Overcast
3:35 PM 15.8 °F 5.1 °F 15.8 °F 100% 30.21 in 10.0 mi ESE 8.1 mph - N/A   Overcast
3:55 PM 15.8 °F 5.1 °F 15.8 °F 100% 30.21 in 7.0 mi SE 8.1 mph - N/A   Overcast
4:15 PM 15.8 °F 7.2 °F 15.8 °F 100% 30.21 in 7.0 mi ESE 5.8 mph - N/A Snow Light Snow
4:35 PM 15.8 °F 8.6 °F 15.8 °F 100% 30.21 in 6.0 mi East 4.6 mph - N/A Snow Light Snow
4:55 PM 15.8 °F 7.2 °F 15.8 °F 100% 30.20 in 6.0 mi East 5.8 mph - N/A   Overcast
5:15 PM 15.8 °F 7.2 °F 15.8 °F 100% 30.21 in 5.0 mi SE 5.8 mph - N/A   Overcast
5:35 PM 15.8 °F 7.2 °F 15.8 °F 100% 30.21 in 3.0 mi ESE 5.8 mph - N/A Snow Light Snow
5:55 PM 15.8 °F 10.2 °F 15.8 °F 100% 30.22 in 2.5 mi SSE 3.5 mph - N/A Snow Light Snow
6:15 PM 15.8 °F 8.6 °F 15.8 °F 100% 30.22 in 4.0 mi SE 4.6 mph - N/A   Overcast
6:35 PM 15.8 °F 7.2 °F 15.8 °F 100% 30.23 in 6.0 mi SSE 5.8 mph - N/A   Overcast
6:55 PM 15.8 °F 7.2 °F 15.8 °F 100% 30.22 in 5.0 mi SSE 5.8 mph - N/A   Overcast
7:15 PM 15.8 °F 7.2 °F 15.8 °F 100% 30.22 in 2.5 mi SE 5.8 mph - N/A   Overcast
7:35 PM 15.8 °F 7.2 °F 15.8 °F 100% 30.22 in 2.0 mi SSE 5.8 mph - N/A   Overcast
7:55 PM 15.8 °F 4.2 °F 15.8 °F 100% 30.24 in 5.0 mi SSW 9.2 mph - N/A   Overcast
8:15 PM 15.8 °F 6.1 °F 15.8 °F 100% 30.24 in 1.2 mi SSE 6.9 mph - N/A   Overcast
8:35 PM 15.8 °F 6.1 °F 15.8 °F 100% 30.23 in 2.0 mi South 6.9 mph - N/A   Overcast
8:55 PM 15.8 °F 5.1 °F 15.8 °F 100% 30.25 in 0.8 mi South 8.1 mph - N/A   Overcast
9:15 PM 15.8 °F 7.2 °F 15.8 °F 100% 30.24 in 0.5 mi SSW 5.8 mph - N/A Fog Light Freezing Fog
9:35 PM 15.8 °F 7.2 °F 15.8 °F 100% 30.24 in 0.5 mi South 5.8 mph - N/A Fog Light Freezing Fog
9:55 PM 15.8 °F 5.1 °F 15.8 °F 100% 30.24 in 0.8 mi SSE 8.1 mph - N/A   Overcast
10:15 PM 15.8 °F 5.1 °F 15.8 °F 100% 30.23 in 0.5 mi SSE 8.1 mph - N/A Fog Light Freezing Fog
10:35 PM 15.8 °F 3.4 °F 15.8 °F 100% 30.23 in 0.5 mi SSE 10.4 mph - N/A Fog Light Freezing Fog
11:15 PM 15.8 °F 4.2 °F 15.8 °F 100% 30.24 in 0.5 mi SSW 9.2 mph - N/A Fog Light Freezing Fog
11:35 PM 15.8 °F 6.1 °F 15.8 °F 100% 30.23 in 0.5 mi SSE 6.9 mph - N/A Fog Light Freezing Fog
11:55 PM 15.8 °F 5.1 °F 15.8 °F 100% 30.24 in 0.2 mi South 8.1 mph - N/A Fog Light Freezing Fog